Location: Coffee Creek Observatory
(38.8077°N, 94.7179°W)
Time: 08:43:13
(UTC-05:00)

Daily predictions for brighter satellites

Satellite Brightness Start Highest point End
(mag) Time Altitude Azimuth Time Altitude Azimuth Time Altitude Azimuth
BREEZE-M DEB (TANK) 4.3 20:57:32 10° WNW 21:01:33 80° SSW 21:15:58 10° SE
Cosmos 1656 Rocket 3.7 20:57:19 10° NNW 21:02:48 87° ENE 21:08:20 10° SSE
Cosmos 1939 Rocket 3.3 21:04:09 10° SE 21:07:47 41° ENE 21:11:26 10° N
Cosmos 405 4.4 21:04:52 10° NNE 21:07:48 23° ENE 21:10:42 10° SE
Helios 1A 3.1 21:10:00 10° SSE 21:14:09 64° ENE 21:18:19 10° N
Cosmos 1437 Rocket 4.4 21:11:47 10° NNE 21:14:30 18° ENE 21:17:15 10° ESE
Meteor 2-4 Rocket 3.9 21:12:01 10° S 21:17:32 59° E 21:23:14 10° NNE
Cosmos 1346 2.9 21:15:08 10° SSW 21:17:53 80° WNW 21:20:39 10° N
ERS-1 Rocket 3.7 21:21:27 10° SE 21:25:59 37° ENE 21:30:34 10° N
Cosmos 1943 Rocket 4.3 21:22:39 10° NW 21:27:01 24° WSW 21:31:20 10° SSW
CZ-4B DEB 2.6 21:24:56 10° SSE 21:27:54 66° ENE 21:30:51 10° N
GENESIS II 4.3 21:24:48 10° NW 21:28:44 75° WSW 21:32:22 11° SSE
CENTAUR R/B 3.5 21:21:29 10° NW 21:29:24 64° WSW 21:37:42 10° SSE
Meteor 2-13 Rocket 4.5 21:27:19 10° N 21:33:24 89° E 21:39:30 10° S
Helios 1B rocket 2.6 21:29:57 10° N 21:34:05 77° WNW 21:38:12 10° SSW
Meteor 1-29 2.9 21:32:36 10° NNE 21:35:59 87° WNW 21:39:20 10° SSW
Okean 1-7 Rocket 3.6 21:33:50 10° S 21:38:15 70° E 21:42:45 10° NNE
Cosmos 405 Rocket 4.1 21:34:54 10° SSW 21:38:28 41° WNW 21:42:08 10° N
DNEPR-1 R/B 3.9 21:35:22 10° NW 21:39:36 63° WSW 21:43:54 12° SSE
ISS -1.6 21:37:29 10° W 21:40:25 29° NNW 21:43:22 10° NNE
CRYOSAT 2 4.5 21:36:59 10° SSE 21:41:44 59° E 21:46:30 10° N
Cosmos 1238 Rocket 4.1 21:35:35 10° S 21:42:20 82° E 21:48:48 10° N
ARGOS 4.1 21:39:41 15° ESE 21:43:27 32° ENE 21:48:13 10° N
OAO 2 Rocket 3.5 21:41:02 10° W 21:45:49 52° S 21:49:22 18° ESE
Cosmos 1441 Rocket 3.5 21:42:10 10° SSW 21:45:52 67° W 21:49:35 10° N
Cosmos 1606 Rocket 4.1 21:43:45 10° N 21:47:51 41° E 21:50:28 20° SE
USA 186 4.5 21:47:28 10° SW 21:49:40 17° W 21:51:50 10° NW
Aureole 1 Rocket 4.2 21:47:58 10° SW 21:50:54 31° WNW 21:53:37 10° N
Aureole 3 Rocket 4.3 21:45:27 10° SSW 21:51:33 54° W 21:55:56 10° N
ASTEX 1 3.3 21:47:40 10° S 21:52:34 84° E 21:57:29 10° N
CZ-3A R/B 0.4 21:48:20 10° SW 21:53:17 66° SE 21:55:08 10° NE
Cosmos 2341 Rocket 4.4 21:47:40 10° N 21:53:50 50° E 21:58:25 18° SSE
Cosmos 1025 Rocket 3.0 21:49:52 10° S 21:54:07 86° W 21:58:25 10° N
NOAA 11 4.4 21:50:42 17° SE 21:54:48 57° ENE 22:00:07 10° N
Cosmos 1726 Rocket 4.0 21:53:03 10° N 21:57:11 43° E 21:59:25 23° SE
Meteor 1-23 Rocket 4.3 21:52:00 10° S 21:57:35 82° W 22:03:13 10° N
Okean 2 3.3 21:55:21 10° S 21:59:25 83° E 22:03:31 10° N
MetOp-B 4.3 21:57:15 19° SE 22:00:59 58° ENE 22:06:15 10° N
USA 245 3.7 22:03:30 22° ENE 22:03:30 22° ENE 22:05:14 10° NNE
Cosmos 1624 Rocket 4.0 22:02:00 10° NNW 22:07:19 84° ENE 22:10:48 22° SSE
PSLV R/B 3.4 22:07:31 10° W 22:10:33 48° SSW 22:11:10 40° SSE
H-2A R/B 2.9 22:09:14 23° ESE 22:11:29 34° ENE 22:15:59 10° N
Intercosmos 24 3.9 22:08:38 10° NNW 22:12:18 67° W 22:14:30 21° S
Cosmos 2082 Rocket 2.4 22:07:29 13° S 22:12:23 48° ESE 22:17:48 10° NE
Cosmos 2058 Rocket 3.4 22:10:13 10° N 22:14:32 50° E 22:16:19 31° SE
Cosmos 2278 3.8 22:09:27 10° NNW 22:15:07 62° ENE 22:18:12 27° SE
YAOGAN 11 4.0 22:15:54 30° SSE 22:17:56 69° ENE 22:22:15 10° N
YAOGAN 6 4.0 22:17:41 14° SSW 22:20:15 33° W 22:23:27 10° NNW
Meteor 1-15 Rocket 4.4 22:15:21 10° NNW 22:20:53 68° W 22:25:10 17° S
Cosmos 2181 Rocket 4.0 22:16:20 15° S 22:21:46 75° E 22:28:04 10° N
Meteor 1-4 Rocket 3.7 22:20:17 10° NNE 22:23:21 26° ENE 22:23:30 26° E
Cosmos 1295 Rocket 4.4 22:20:14 10° N 22:26:27 75° E 22:30:08 26° SSE
Cosmos 2056 Rocket 3.6 22:21:39 10° NNW 22:26:47 69° WSW 22:29:39 26° S
MOS 1-B Rocket 4.0 22:23:05 22° S 22:27:01 82° WSW 22:33:31 10° NNW
H-2A R/B 3.5 22:32:00 23° E 22:32:59 25° ENE 22:36:42 10° NNE
Cosmos 1697 Rocket 3.3 22:27:43 10° N 22:33:04 43° ENE 22:35:16 30° ESE
Tiangong 2 2.4 22:31:53 10° WNW 22:34:52 37° N 22:36:17 24° NE
Cosmos 2369 3.7 22:29:36 10° NNW 22:35:22 90° E 22:38:00 34° SSE
Cosmos 1656 3.7 22:30:40 10° NNW 22:36:06 64° ENE 22:38:15 36° SE
Landsat 7 4.4 22:35:40 35° ESE 22:37:00 43° ENE 22:41:31 10° N
DMSP B5D2-2 4.4 22:32:54 10° NNE 22:37:58 44° E 22:39:16 37° SE
SL-16 R/B 4.5 22:38:28 10° NNE 22:40:27 12° NE 22:42:28 10° ENE
Cosmos 1626 Rocket 3.7 22:42:37 47° ESE 22:43:05 50° E 22:47:15 10° NNE
Cosmos 1048 Rocket 4.3 22:45:30 40° ESE 22:46:03 41° ESE 22:50:53 10° NNE
COSMOS 2487 3.6 22:44:42 17° SW 22:47:06 42° WNW 22:50:31 10° N
Cosmos 1833 Rocket 2.6 22:42:35 15° SSW 22:47:21 89° ESE 22:53:01 10° NNE
Terra 2.3 22:51:09 39° E 22:52:02 43° ENE 22:56:32 10° N
Cosmos 1271 Rocket 4.2 22:49:40 10° NNE 22:52:36 25° ENE 22:52:36 25° ENE
Cosmos 2228 3.4 22:54:12 10° NNW 22:58:25 59° W 22:59:29 44° SSW
Cosmos 1452 Rocket 3.4 22:53:25 10° NNW 22:58:43 89° WSW 23:00:11 49° SSE
SPOT 5 3.4 22:58:02 33° SSW 22:59:26 45° W 23:03:38 10° NNW
Cosmos 921 Rocket 4.0 22:56:04 10° NNW 23:00:15 40° W 23:01:36 31° SW
SL-8 Rocket 4.0 22:54:30 10° N 23:00:48 79° W 23:03:39 35° S
SPOT 1/Viking Rocket 3.7 23:01:13 40° S 23:03:00 68° WSW 23:08:08 10° NNW
Cosmos 1066 Rocket 4.4 23:02:26 27° SSW 23:05:27 68° W 23:11:05 10° N
Cosmos 2366 rocket 3.9 23:00:59 10° N 23:07:11 86° E 23:09:16 45° S
USA 267 4.3 23:04:20 10° ENE 23:07:57 25° E 23:07:57 25° E
Lacrosse 5 4.1 23:17:42 12° ENE 23:17:42 12° ENE 23:18:10 10° ENE
Cosmos 1953 4.0 23:12:25 10° NNE 23:15:05 23° ENE 23:15:05 23° ENE
ISS -0.2 23:17:09 10° NNW 23:17:46 10° N 23:18:23 10° N
Cosmos 1602 Rocket 3.7 23:17:48 57° SW 23:18:23 65° W 23:22:41 10° N
Cosmos 1980 Rocket 2.2 23:16:15 10° NNW 23:21:53 64° ENE 23:22:51 55° ESE
Cosmos 1766 3.6 23:23:10 10° N 23:26:31 63° NNW 23:26:31 63° NNW
deb Chang Zheng 4 3.5 23:27:31 10° N 23:31:43 79° NW 23:31:43 79° NW
Meteor 1-21 4.2 23:31:31 55° SSW 23:32:50 83° W 23:38:36 10° N
Cosmos 2322 Rocket 3.5 23:28:01 10° N 23:32:56 29° ENE 23:34:12 27° E
Lacrosse 5 rocket 3.8 23:34:43 10° NNW 23:38:05 19° NNE 23:40:10 15° ENE
USA 229 DEB 3.7 23:33:57 10° NNW 23:41:10 82° ENE 23:43:05 53° SE
USA 229 3.8 23:34:04 10° NNW 23:41:16 81° ENE 23:43:12 53° SE
Timation 2 Rocket 4.5 23:37:07 20° SW 23:41:35 57° WNW 23:47:39 10° NNE
Cosmos 158 Rocket 4.4 23:42:21 43° SW 23:43:51 60° WNW 23:49:10 10° N
CARTOSAT-1 4.2 23:44:16 48° W 23:44:16 48° W 23:48:15 10° NNW
DELTA 2 DEB (DPAF) 4.4 23:46:12 63° NNE 23:46:12 63° NNE 23:50:11 10° N
H-2A R/B 3.5 23:49:51 23° WSW 23:50:55 25° W 23:55:03 10° NW
Cosmos 1934 Rocket 4.4 23:46:27 10° N 23:52:35 48° ENE 23:53:14 46° E
CZ-2C R/B 4.0 23:49:17 10° NE 23:53:10 27° ENE 23:53:10 27° ENE
